Time,TemperatureF,DewpointF,PressureIn,WindDirection,WindDirectionDegrees,WindSpeedMPH,WindSpeedGustMPH,Humidity,HourlyPrecipIn,Conditions,Clouds,dailyrainin,SoftwareType,DateUTC
2013-02-05 00:00:00,55.5,51.7,30.06,SE,135,0.0,-999.0,87,0.00,,,0.00,Wunderground v.1.15,2013-02-05 08:00:00,
2013-02-05 00:05:00,55.5,51.7,30.06,SE,135,0.0,-999.0,87,0.00,,,0.00,Wunderground v.1.15,2013-02-05 08:05:00,
2013-02-05 00:10:00,55.5,51.7,30.06,SE,135,0.0,-999.0,87,0.00,,,0.00,Wunderground v.1.15,2013-02-05 08:10:00,
2013-02-05 00:15:00,55.5,51.7,30.06,SE,135,0.0,-999.0,87,0.00,,,0.00,Wunderground v.1.15,2013-02-05 08:15:00,
2013-02-05 00:20:00,55.5,51.7,30.06,SE,135,0.0,-999.0,87,0.00,,,0.00,Wunderground v.1.15,2013-02-05 08:20:00,
2013-02-05 00:25:00,55.5,51.7,30.06,SE,135,0.0,-999.0,87,0.00,,,0.00,Wunderground v.1.15,2013-02-05 08:25:00,
2013-02-05 00:30:00,55.5,51.7,30.06,SE,135,0.0,-999.0,87,0.00,,,0.00,Wunderground v.1.15,2013-02-05 08:30:00,
2013-02-05 00:35:00,55.4,51.6,30.06,SE,135,0.0,-999.0,87,0.00,,,0.00,Wunderground v.1.15,2013-02-05 08:35:00,
2013-02-05 00:40:00,55.4,51.6,30.06,SE,135,0.0,-999.0,87,0.00,,,0.00,Wunderground v.1.15,2013-02-05 08:40:00,
2013-02-05 00:45:00,55.4,51.6,30.06,SE,135,0.0,-999.0,87,0.00,,,0.00,Wunderground v.1.15,2013-02-05 08:45:00,
2013-02-05 00:50:00,55.4,51.6,30.06,SE,135,0.0,-999.0,87,0.00,,,0.00,Wunderground v.1.15,2013-02-05 08:50:00,
2013-02-05 00:55:00,55.3,51.5,30.05,East,90,0.0,-999.0,87,0.00,,,0.00,Wunderground v.1.15,2013-02-05 08:55:00,
2013-02-05 01:00:00,55.3,51.5,30.05,East,90,0.0,-999.0,87,0.00,,,0.00,Wunderground v.1.15,2013-02-05 09:00:00,
2013-02-05 01:05:00,55.1,51.0,30.05,East,90,0.0,-999.0,86,0.00,,,0.00,Wunderground v.1.15,2013-02-05 09:05:00,
2013-02-05 01:10:00,55.1,51.0,30.05,East,90,0.0,-999.0,86,0.00,,,0.00,Wunderground v.1.15,2013-02-05 09:10:00,
2013-02-05 01:15:00,55.1,51.3,30.05,East,90,0.0,-999.0,87,0.00,,,0.00,Wunderground v.1.15,2013-02-05 09:15:00,
2013-02-05 01:20:00,55.1,51.3,30.05,East,90,0.0,-999.0,87,0.00,,,0.00,Wunderground v.1.15,2013-02-05 09:20:00,
2013-02-05 01:25:00,54.9,50.8,30.05,East,90,0.0,-999.0,86,0.00,,,0.00,Wunderground v.1.15,2013-02-05 09:25:00,
2013-02-05 01:30:00,54.9,50.8,30.05,East,90,0.0,-999.0,86,0.00,,,0.00,Wunderground v.1.15,2013-02-05 09:30:00,
2013-02-05 01:35:00,54.9,51.1,30.05,East,90,0.0,-999.0,87,0.00,,,0.00,Wunderground v.1.15,2013-02-05 09:35:00,
2013-02-05 01:40:00,54.9,51.1,30.05,East,90,0.0,-999.0,87,0.00,,,0.00,Wunderground v.1.15,2013-02-05 09:40:00,
2013-02-05 01:45:00,54.8,51.0,30.05,East,90,0.0,-999.0,87,0.00,,,0.00,Wunderground v.1.15,2013-02-05 09:45:00,
2013-02-05 01:50:00,54.8,51.0,30.05,East,90,0.0,-999.0,87,0.00,,,0.00,Wunderground v.1.15,2013-02-05 09:50:00,
2013-02-05 01:55:00,54.8,51.0,30.05,East,90,0.0,-999.0,87,0.00,,,0.00,Wunderground v.1.15,2013-02-05 09:55:00,
2013-02-05 02:00:00,54.8,51.0,30.05,East,90,0.0,-999.0,87,0.00,,,0.00,Wunderground v.1.15,2013-02-05 10:00:00,
2013-02-05 02:05:00,54.8,51.0,30.05,N/A,-737280,0.0,-999.0,87,0.00,,,0.00,Wunderground v.1.15,2013-02-05 10:05:00,
2013-02-05 02:10:00,54.8,51.0,30.05,N/A,-737280,0.0,-999.0,87,0.00,,,0.00,Wunderground v.1.15,2013-02-05 10:10:00,
2013-02-05 02:15:00,54.9,51.1,30.04,N/A,-737280,0.0,-999.0,87,0.00,,,0.00,Wunderground v.1.15,2013-02-05 10:15:00,
2013-02-05 02:20:00,54.9,51.1,30.04,N/A,-737280,0.0,-999.0,87,0.00,,,0.00,Wunderground v.1.15,2013-02-05 10:20:00,
2013-02-05 02:25:00,54.8,51.0,30.04,N/A,-737280,0.0,-999.0,87,0.00,,,0.00,Wunderground v.1.15,2013-02-05 10:25:00,
2013-02-05 02:30:00,54.8,51.0,30.04,N/A,-737280,0.0,-999.0,87,0.00,,,0.00,Wunderground v.1.15,2013-02-05 10:30:00,
2013-02-05 02:35:00,54.8,51.0,30.03,East,90,0.0,-999.0,87,0.00,,,0.00,Wunderground v.1.15,2013-02-05 10:35:00,
2013-02-05 02:40:00,54.8,51.0,30.03,East,90,0.0,-999.0,87,0.00,,,0.00,Wunderground v.1.15,2013-02-05 10:40:00,
2013-02-05 02:45:00,54.7,50.9,30.03,East,90,0.0,-999.0,87,0.00,,,0.00,Wunderground v.1.15,2013-02-05 10:45:00,
2013-02-05 02:50:00,54.7,50.9,30.03,East,90,0.0,-999.0,87,0.00,,,0.00,Wunderground v.1.15,2013-02-05 10:50:00,
2013-02-05 02:55:00,54.6,50.5,30.03,East,90,0.0,-999.0,86,0.00,,,0.00,Wunderground v.1.15,2013-02-05 10:55:00,
2013-02-05 03:00:00,54.6,50.5,30.03,East,90,0.0,-999.0,86,0.00,,,0.00,Wunderground v.1.15,2013-02-05 11:00:00,
2013-02-05 03:05:00,54.4,50.3,30.03,East,90,1.0,-999.0,86,0.00,,,0.00,Wunderground v.1.15,2013-02-05 11:05:00,
2013-02-05 03:10:00,54.4,50.3,30.03,East,90,1.0,-999.0,86,0.00,,,0.00,Wunderground v.1.15,2013-02-05 11:10:00,
2013-02-05 03:15:00,54.3,50.2,30.03,East,90,0.0,-999.0,86,0.00,,,0.00,Wunderground v.1.15,2013-02-05 11:15:00,
2013-02-05 03:20:00,54.3,50.2,30.03,East,90,0.0,-999.0,86,0.00,,,0.00,Wunderground v.1.15,2013-02-05 11:20:00,
2013-02-05 03:25:00,54.3,50.5,30.03,N/A,-737280,0.0,-999.0,87,0.00,,,0.00,Wunderground v.1.15,2013-02-05 11:25:00,
2013-02-05 03:30:00,54.3,50.5,30.03,N/A,-737280,0.0,-999.0,87,0.00,,,0.00,Wunderground v.1.15,2013-02-05 11:30:00,
2013-02-05 03:35:00,54.3,50.5,30.02,East,90,0.0,-999.0,87,0.00,,,0.00,Wunderground v.1.15,2013-02-05 11:35:00,
2013-02-05 03:40:00,54.3,50.5,30.02,East,90,0.0,-999.0,87,0.00,,,0.00,Wunderground v.1.15,2013-02-05 11:40:00,
2013-02-05 03:45:00,54.3,50.5,30.02,South,180,0.0,-999.0,87,0.00,,,0.00,Wunderground v.1.15,2013-02-05 11:45:00,
2013-02-05 03:50:00,54.3,50.5,30.02,South,180,0.0,-999.0,87,0.00,,,0.00,Wunderground v.1.15,2013-02-05 11:50:00,
2013-02-05 03:55:00,54.3,50.5,30.02,South,180,0.0,-999.0,87,0.00,,,0.00,Wunderground v.1.15,2013-02-05 11:55:00,
2013-02-05 04:00:00,54.3,50.5,30.02,South,180,0.0,-999.0,87,0.00,,,0.00,Wunderground v.1.15,2013-02-05 12:00:00,
2013-02-05 04:05:00,54.2,50.4,30.02,SSE,158,1.0,-999.0,87,0.00,,,0.00,Wunderground v.1.15,2013-02-05 12:05:00,
2013-02-05 04:10:00,54.2,50.4,30.02,SSE,158,1.0,-999.0,87,0.00,,,0.00,Wunderground v.1.15,2013-02-05 12:10:00,
2013-02-05 04:15:00,54.2,50.4,30.02,ESE,113,0.0,-999.0,87,0.00,,,0.00,Wunderground v.1.15,2013-02-05 12:15:00,
2013-02-05 04:20:00,54.2,50.4,30.02,ESE,113,0.0,-999.0,87,0.00,,,0.00,Wunderground v.1.15,2013-02-05 12:20:00,
2013-02-05 04:25:00,54.1,50.3,30.02,N/A,-737280,0.0,-999.0,87,0.00,,,0.00,Wunderground v.1.15,2013-02-05 12:25:00,
2013-02-05 04:30:00,54.1,50.3,30.02,N/A,-737280,0.0,-999.0,87,0.00,,,0.00,Wunderground v.1.15,2013-02-05 12:30:00,
2013-02-05 04:35:00,54.2,50.4,30.02,ESE,113,0.0,-999.0,87,0.00,,,0.00,Wunderground v.1.15,2013-02-05 12:35:00,
2013-02-05 04:40:00,54.2,50.4,30.02,ESE,113,0.0,-999.0,87,0.00,,,0.00,Wunderground v.1.15,2013-02-05 12:40:00,
2013-02-05 04:45:00,54.2,50.4,30.02,ESE,113,0.0,-999.0,87,0.00,,,0.00,Wunderground v.1.15,2013-02-05 12:45:00,
2013-02-05 04:50:00,54.2,50.4,30.02,ESE,113,0.0,-999.0,87,0.00,,,0.00,Wunderground v.1.15,2013-02-05 12:50:00,
2013-02-05 04:55:00,54.1,50.3,30.02,ESE,113,0.0,-999.0,87,0.00,,,0.00,Wunderground v.1.15,2013-02-05 12:55:00,
2013-02-05 05:00:00,54.1,50.3,30.02,ESE,113,0.0,-999.0,87,0.00,,,0.00,Wunderground v.1.15,2013-02-05 13:00:00,
2013-02-05 05:05:00,54.1,50.3,30.01,N/A,-737280,0.0,-999.0,87,0.00,,,0.00,Wunderground v.1.15,2013-02-05 13:05:00,
2013-02-05 05:10:00,54.1,50.3,30.01,N/A,-737280,0.0,-999.0,87,0.00,,,0.00,Wunderground v.1.15,2013-02-05 13:10:00,
2013-02-05 05:15:00,54.1,50.3,30.01,ESE,113,0.0,-999.0,87,0.00,,,0.00,Wunderground v.1.15,2013-02-05 13:15:00,
2013-02-05 05:20:00,54.1,50.3,30.01,ESE,113,0.0,-999.0,87,0.00,,,0.00,Wunderground v.1.15,2013-02-05 13:20:00,
2013-02-05 05:25:00,54.1,50.3,30.02,ESE,113,0.0,-999.0,87,0.00,,,0.00,Wunderground v.1.15,2013-02-05 13:25:00,
2013-02-05 05:30:00,54.1,50.3,30.02,ESE,113,0.0,-999.0,87,0.00,,,0.00,Wunderground v.1.15,2013-02-05 13:30:00,
2013-02-05 05:35:00,54.1,50.3,30.02,South,180,0.0,-999.0,87,0.00,,,0.00,Wunderground v.1.15,2013-02-05 13:35:00,
2013-02-05 05:40:00,54.1,50.3,30.02,South,180,0.0,-999.0,87,0.00,,,0.00,Wunderground v.1.15,2013-02-05 13:40:00,
2013-02-05 05:45:00,54.0,50.2,30.02,South,180,0.0,-999.0,87,0.00,,,0.00,Wunderground v.1.15,2013-02-05 13:45:00,
2013-02-05 05:50:00,54.0,50.2,30.02,South,180,0.0,-999.0,87,0.00,,,0.00,Wunderground v.1.15,2013-02-05 13:50:00,
2013-02-05 05:55:00,54.1,50.3,30.02,South,180,0.0,-999.0,87,0.00,,,0.00,Wunderground v.1.15,2013-02-05 13:55:00,
2013-02-05 06:00:00,54.1,50.3,30.02,South,180,0.0,-999.0,87,0.00,,,0.00,Wunderground v.1.15,2013-02-05 14:00:00,
2013-02-05 06:05:00,53.9,50.1,30.02,South,180,0.0,-999.0,87,0.00,,,0.00,Wunderground v.1.15,2013-02-05 14:05:00,
2013-02-05 06:10:00,53.9,50.1,30.02,South,180,0.0,-999.0,87,0.00,,,0.00,Wunderground v.1.15,2013-02-05 14:10:00,
2013-02-05 06:15:00,54.0,50.2,30.03,South,180,0.0,-999.0,87,0.00,,,0.00,Wunderground v.1.15,2013-02-05 14:15:00,
2013-02-05 06:20:00,54.0,50.2,30.03,South,180,0.0,-999.0,87,0.00,,,0.00,Wunderground v.1.15,2013-02-05 14:20:00,
2013-02-05 06:25:00,54.0,50.2,30.04,SW,225,2.0,-999.0,87,0.00,,,0.00,Wunderground v.1.15,2013-02-05 14:25:00,
2013-02-05 06:30:00,54.0,50.2,30.04,SW,225,2.0,-999.0,87,0.00,,,0.00,Wunderground v.1.15,2013-02-05 14:30:00,
2013-02-05 06:35:00,53.9,50.1,30.05,West,270,1.0,-999.0,87,0.00,,,0.00,Wunderground v.1.15,2013-02-05 14:35:00,
2013-02-05 06:40:00,53.9,50.1,30.05,West,270,1.0,-999.0,87,0.00,,,0.00,Wunderground v.1.15,2013-02-05 14:40:00,
2013-02-05 06:45:00,53.8,50.0,30.05,West,270,0.0,-999.0,87,0.00,,,0.00,Wunderground v.1.15,2013-02-05 14:45:00,
2013-02-05 06:50:00,53.8,50.0,30.05,West,270,0.0,-999.0,87,0.00,,,0.00,Wunderground v.1.15,2013-02-05 14:50:00,
2013-02-05 06:55:00,53.9,50.1,30.05,West,270,0.0,-999.0,87,0.00,,,0.00,Wunderground v.1.15,2013-02-05 14:55:00,
2013-02-05 07:00:00,53.9,50.1,30.05,West,270,0.0,-999.0,87,0.00,,,0.00,Wunderground v.1.15,2013-02-05 15:00:00,
2013-02-05 07:05:00,54.0,50.2,30.05,N/A,-737280,0.0,-999.0,87,0.00,,,0.00,Wunderground v.1.15,2013-02-05 15:05:00,
2013-02-05 07:10:00,54.0,50.2,30.05,N/A,-737280,0.0,-999.0,87,0.00,,,0.00,Wunderground v.1.15,2013-02-05 15:10:00,
2013-02-05 07:15:00,54.1,50.3,30.05,N/A,-737280,0.0,-999.0,87,0.00,,,0.00,Wunderground v.1.15,2013-02-05 15:15:00,
2013-02-05 07:20:00,54.1,50.3,30.05,N/A,-737280,0.0,-999.0,87,0.00,,,0.00,Wunderground v.1.15,2013-02-05 15:20:00,
2013-02-05 07:25:00,54.2,50.4,30.06,West,270,0.0,-999.0,87,0.00,,,0.00,Wunderground v.1.15,2013-02-05 15:25:00,
2013-02-05 07:30:00,54.2,50.4,30.06,West,270,0.0,-999.0,87,0.00,,,0.00,Wunderground v.1.15,2013-02-05 15:30:00,
2013-02-05 07:35:00,54.3,50.2,30.06,West,270,0.0,-999.0,86,0.00,,,0.00,Wunderground v.1.15,2013-02-05 15:35:00,
2013-02-05 07:40:00,54.3,50.2,30.06,West,270,0.0,-999.0,86,0.00,,,0.00,Wunderground v.1.15,2013-02-05 15:40:00,
2013-02-05 07:45:00,54.4,50.3,30.07,West,270,0.0,-999.0,86,0.00,,,0.00,Wunderground v.1.15,2013-02-05 15:45:00,
2013-02-05 07:50:00,54.4,50.3,30.07,West,270,0.0,-999.0,86,0.00,,,0.00,Wunderground v.1.15,2013-02-05 15:50:00,
2013-02-05 07:55:00,54.5,50.4,30.07,West,270,0.0,-999.0,86,0.00,,,0.00,Wunderground v.1.15,2013-02-05 15:55:00,
2013-02-05 08:00:00,54.5,50.4,30.07,West,270,0.0,-999.0,86,0.00,,,0.00,Wunderground v.1.15,2013-02-05 16:00:00,
2013-02-05 08:05:00,54.5,50.4,30.08,West,270,0.0,-999.0,86,0.00,,,0.00,Wunderground v.1.15,2013-02-05 16:05:00,
2013-02-05 08:10:00,54.5,50.4,30.08,West,270,0.0,-999.0,86,0.00,,,0.00,Wunderground v.1.15,2013-02-05 16:10:00,
2013-02-05 08:15:00,54.6,50.5,30.07,West,270,0.0,-999.0,86,0.00,,,0.00,Wunderground v.1.15,2013-02-05 16:15:00,
2013-02-05 08:20:00,54.6,50.5,30.07,West,270,0.0,-999.0,86,0.00,,,0.00,Wunderground v.1.15,2013-02-05 16:20:00,
2013-02-05 08:25:00,54.8,50.7,30.08,N/A,-737280,0.0,-999.0,86,0.00,,,0.00,Wunderground v.1.15,2013-02-05 16:25:00,
2013-02-05 08:30:00,54.8,50.7,30.08,N/A,-737280,0.0,-999.0,86,0.00,,,0.00,Wunderground v.1.15,2013-02-05 16:30:00,
2013-02-05 08:35:00,54.9,50.5,30.08,West,270,0.0,-999.0,85,0.00,,,0.00,Wunderground v.1.15,2013-02-05 16:35:00,
2013-02-05 08:40:00,54.9,50.5,30.08,West,270,0.0,-999.0,85,0.00,,,0.00,Wunderground v.1.15,2013-02-05 16:40:00,
2013-02-05 08:45:00,55.0,50.9,30.08,West,270,0.0,-999.0,86,0.00,,,0.00,Wunderground v.1.15,2013-02-05 16:45:00,
2013-02-05 08:50:00,55.0,50.9,30.08,West,270,0.0,-999.0,86,0.00,,,0.00,Wunderground v.1.15,2013-02-05 16:50:00,
2013-02-05 08:55:00,55.0,50.6,30.08,ENE,68,0.0,-999.0,85,0.00,,,0.00,Wunderground v.1.15,2013-02-05 16:55:00,
2013-02-05 09:00:00,55.0,50.6,30.08,ENE,68,0.0,-999.0,85,0.00,,,0.00,Wunderground v.1.15,2013-02-05 17:00:00,
2013-02-05 09:05:00,55.1,50.7,30.08,ENE,68,0.0,-999.0,85,0.00,,,0.00,Wunderground v.1.15,2013-02-05 17:05:00,
2013-02-05 09:10:00,55.1,50.7,30.08,ENE,68,0.0,-999.0,85,0.00,,,0.00,Wunderground v.1.15,2013-02-05 17:10:00,
2013-02-05 09:15:00,55.1,50.7,30.09,ENE,68,0.0,-999.0,85,0.00,,,0.00,Wunderground v.1.15,2013-02-05 17:15:00,
2013-02-05 09:20:00,55.1,50.7,30.09,ENE,68,0.0,-999.0,85,0.00,,,0.00,Wunderground v.1.15,2013-02-05 17:20:00,
2013-02-05 09:25:00,55.1,50.7,30.09,ENE,68,0.0,-999.0,85,0.00,,,0.00,Wunderground v.1.15,2013-02-05 17:25:00,
2013-02-05 09:30:00,55.1,50.7,30.09,ENE,68,0.0,-999.0,85,0.00,,,0.00,Wunderground v.1.15,2013-02-05 17:30:00,
2013-02-05 09:35:00,55.2,50.8,30.09,ENE,68,0.0,-999.0,85,0.00,,,0.00,Wunderground v.1.15,2013-02-05 17:35:00,
2013-02-05 09:40:00,55.2,50.8,30.09,ENE,68,0.0,-999.0,85,0.00,,,0.00,Wunderground v.1.15,2013-02-05 17:40:00,
2013-02-05 09:45:00,55.4,51.0,30.09,ENE,68,0.0,-999.0,85,0.00,,,0.00,Wunderground v.1.15,2013-02-05 17:45:00,
2013-02-05 09:50:00,55.4,51.0,30.09,ENE,68,0.0,-999.0,85,0.00,,,0.00,Wunderground v.1.15,2013-02-05 17:50:00,
2013-02-05 09:55:00,55.5,50.7,30.09,ENE,68,0.0,-999.0,84,0.00,,,0.00,Wunderground v.1.15,2013-02-05 17:55:00,
2013-02-05 10:00:00,55.5,50.7,30.09,ENE,68,0.0,-999.0,84,0.00,,,0.00,Wunderground v.1.15,2013-02-05 18:00:00,
2013-02-05 10:05:00,55.8,51.0,30.09,ENE,68,1.0,-999.0,84,0.00,,,0.00,Wunderground v.1.15,2013-02-05 18:05:00,
2013-02-05 10:10:00,55.8,51.0,30.09,ENE,68,1.0,-999.0,84,0.00,,,0.00,Wunderground v.1.15,2013-02-05 18:10:00,
2013-02-05 10:15:00,56.1,51.3,30.09,SSE,158,0.0,-999.0,84,0.00,,,0.00,Wunderground v.1.15,2013-02-05 18:15:00,
2013-02-05 10:20:00,56.1,51.3,30.09,SSE,158,0.0,-999.0,84,0.00,,,0.00,Wunderground v.1.15,2013-02-05 18:20:00,
2013-02-05 10:25:00,56.3,51.2,30.09,SSE,158,0.0,-999.0,83,0.00,,,0.00,Wunderground v.1.15,2013-02-05 18:25:00,
2013-02-05 10:30:00,56.3,51.2,30.09,SSE,158,0.0,-999.0,83,0.00,,,0.00,Wunderground v.1.15,2013-02-05 18:30:00,
2013-02-05 10:35:00,56.4,51.3,30.09,SSE,158,0.0,-999.0,83,0.00,,,0.00,Wunderground v.1.15,2013-02-05 18:35:00,
2013-02-05 10:40:00,56.4,51.3,30.09,SSE,158,0.0,-999.0,83,0.00,,,0.00,Wunderground v.1.15,2013-02-05 18:40:00,
2013-02-05 10:45:00,56.5,51.4,30.10,South,180,0.0,-999.0,83,0.00,,,0.00,Wunderground v.1.15,2013-02-05 18:45:00,
2013-02-05 10:50:00,56.5,51.4,30.10,South,180,0.0,-999.0,83,0.00,,,0.00,Wunderground v.1.15,2013-02-05 18:50:00,
2013-02-05 10:55:00,56.4,51.3,30.10,SSW,203,0.0,-999.0,83,0.00,,,0.00,Wunderground v.1.15,2013-02-05 18:55:00,
2013-02-05 11:00:00,56.4,51.3,30.10,SSW,203,0.0,-999.0,83,0.00,,,0.00,Wunderground v.1.15,2013-02-05 19:00:00,
2013-02-05 11:05:00,56.4,51.3,30.09,SSW,203,1.0,-999.0,83,0.00,,,0.00,Wunderground v.1.15,2013-02-05 19:05:00,
2013-02-05 11:10:00,56.4,51.3,30.09,SSW,203,1.0,-999.0,83,0.00,,,0.00,Wunderground v.1.15,2013-02-05 19:10:00,
2013-02-05 11:15:00,56.6,51.5,30.08,SSW,203,1.0,-999.0,83,0.00,,,0.00,Wunderground v.1.15,2013-02-05 19:15:00,
2013-02-05 11:20:00,56.6,51.5,30.08,SSW,203,1.0,-999.0,83,0.00,,,0.00,Wunderground v.1.15,2013-02-05 19:20:00,
2013-02-05 11:25:00,56.5,51.4,30.08,South,180,1.0,-999.0,83,0.00,,,0.00,Wunderground v.1.15,2013-02-05 19:25:00,
2013-02-05 11:30:00,56.5,51.4,30.08,South,180,1.0,-999.0,83,0.00,,,0.00,Wunderground v.1.15,2013-02-05 19:30:00,
2013-02-05 11:35:00,56.6,51.5,30.08,SSW,203,0.0,-999.0,83,0.00,,,0.00,Wunderground v.1.15,2013-02-05 19:35:00,
2013-02-05 11:40:00,56.6,51.5,30.08,SSW,203,0.0,-999.0,83,0.00,,,0.00,Wunderground v.1.15,2013-02-05 19:40:00,
2013-02-05 11:45:00,56.7,51.6,30.08,SSE,158,1.0,-999.0,83,0.00,,,0.00,Wunderground v.1.15,2013-02-05 19:45:00,
2013-02-05 11:50:00,56.7,51.6,30.08,SSE,158,1.0,-999.0,83,0.00,,,0.00,Wunderground v.1.15,2013-02-05 19:50:00,
2013-02-05 11:55:00,56.6,51.5,30.07,SSW,203,1.0,-999.0,83,0.00,,,0.00,Wunderground v.1.15,2013-02-05 19:55:00,
2013-02-05 12:00:00,56.6,51.5,30.07,SSW,203,1.0,-999.0,83,0.00,,,0.00,Wunderground v.1.15,2013-02-05 20:00:00,
2013-02-05 12:05:00,56.7,51.6,30.06,SSE,158,0.0,-999.0,83,0.00,,,0.00,Wunderground v.1.15,2013-02-05 20:05:00,
2013-02-05 12:10:00,56.7,51.6,30.06,SSE,158,0.0,-999.0,83,0.00,,,0.00,Wunderground v.1.15,2013-02-05 20:10:00,
2013-02-05 12:15:00,56.7,51.3,30.06,SSE,158,0.0,-999.0,82,0.00,,,0.00,Wunderground v.1.15,2013-02-05 20:15:00,
2013-02-05 12:20:00,56.7,51.3,30.06,SSE,158,0.0,-999.0,82,0.00,,,0.00,Wunderground v.1.15,2013-02-05 20:20:00,
2013-02-05 12:25:00,56.6,51.2,30.05,East,90,0.0,-999.0,82,0.00,,,0.00,Wunderground v.1.15,2013-02-05 20:25:00,
2013-02-05 12:30:00,56.6,51.2,30.05,East,90,0.0,-999.0,82,0.00,,,0.00,Wunderground v.1.15,2013-02-05 20:30:00,
2013-02-05 12:35:00,56.8,51.4,30.05,East,90,0.0,-999.0,82,0.00,,,0.00,Wunderground v.1.15,2013-02-05 20:35:00,
2013-02-05 12:40:00,56.8,51.4,30.05,East,90,0.0,-999.0,82,0.00,,,0.00,Wunderground v.1.15,2013-02-05 20:40:00,
2013-02-05 12:45:00,56.8,51.4,30.04,East,90,0.0,-999.0,82,0.00,,,0.00,Wunderground v.1.15,2013-02-05 20:45:00,
2013-02-05 12:50:00,56.8,51.4,30.04,East,90,0.0,-999.0,82,0.00,,,0.00,Wunderground v.1.15,2013-02-05 20:50:00,
2013-02-05 12:55:00,57.4,51.9,30.04,N/A,-737280,0.0,-999.0,82,0.00,,,0.00,Wunderground v.1.15,2013-02-05 20:55:00,
2013-02-05 13:00:00,57.4,51.9,30.04,N/A,-737280,0.0,-999.0,82,0.00,,,0.00,Wunderground v.1.15,2013-02-05 21:00:00,
2013-02-05 13:05:00,57.6,51.8,30.03,East,90,0.0,-999.0,81,0.00,,,0.00,Wunderground v.1.15,2013-02-05 21:05:00,
2013-02-05 13:10:00,57.6,51.8,30.03,East,90,0.0,-999.0,81,0.00,,,0.00,Wunderground v.1.15,2013-02-05 21:10:00,
2013-02-05 13:15:00,57.6,51.8,30.03,SE,135,0.0,-999.0,81,0.00,,,0.00,Wunderground v.1.15,2013-02-05 21:15:00,
2013-02-05 13:20:00,57.6,51.8,30.03,SE,135,0.0,-999.0,81,0.00,,,0.00,Wunderground v.1.15,2013-02-05 21:20:00,
2013-02-05 13:25:00,57.7,51.9,30.02,SSE,158,0.0,-999.0,81,0.00,,,0.00,Wunderground v.1.15,2013-02-05 21:25:00,
2013-02-05 13:30:00,57.7,51.9,30.02,SSE,158,0.0,-999.0,81,0.00,,,0.00,Wunderground v.1.15,2013-02-05 21:30:00,
2013-02-05 13:35:00,57.8,52.0,30.02,SSE,158,0.0,-999.0,81,0.00,,,0.00,Wunderground v.1.15,2013-02-05 21:35:00,
2013-02-05 13:40:00,57.8,52.0,30.02,SSE,158,0.0,-999.0,81,0.00,,,0.00,Wunderground v.1.15,2013-02-05 21:40:00,
2013-02-05 13:45:00,58.4,52.3,30.01,SSE,158,0.0,-999.0,80,0.00,,,0.00,Wunderground v.1.15,2013-02-05 21:45:00,
2013-02-05 13:50:00,58.4,52.3,30.01,SSE,158,0.0,-999.0,80,0.00,,,0.00,Wunderground v.1.15,2013-02-05 21:50:00,
2013-02-05 13:55:00,58.8,52.3,30.00,SSE,158,1.0,-999.0,79,0.00,,,0.00,Wunderground v.1.15,2013-02-05 21:55:00,
2013-02-05 14:00:00,58.8,52.3,30.00,SSE,158,1.0,-999.0,79,0.00,,,0.00,Wunderground v.1.15,2013-02-05 22:00:00,
2013-02-05 14:05:00,58.7,51.9,30.00,SSE,158,1.0,-999.0,78,0.00,,,0.00,Wunderground v.1.15,2013-02-05 22:05:00,
2013-02-05 14:10:00,58.7,51.9,30.00,SSE,158,1.0,-999.0,78,0.00,,,0.00,Wunderground v.1.15,2013-02-05 22:10:00,
2013-02-05 14:15:00,58.6,52.1,29.99,SSW,203,1.0,-999.0,79,0.00,,,0.00,Wunderground v.1.15,2013-02-05 22:15:00,
2013-02-05 14:20:00,58.6,52.1,29.99,SSW,203,1.0,-999.0,79,0.00,,,0.00,Wunderground v.1.15,2013-02-05 22:20:00,
2013-02-05 14:25:00,58.6,52.1,29.99,ESE,113,1.0,-999.0,79,0.00,,,0.00,Wunderground v.1.15,2013-02-05 22:25:00,
2013-02-05 14:30:00,58.6,52.1,29.99,ESE,113,1.0,-999.0,79,0.00,,,0.00,Wunderground v.1.15,2013-02-05 22:30:00,
2013-02-05 14:35:00,58.8,52.3,29.99,SSE,158,0.0,-999.0,79,0.00,,,0.00,Wunderground v.1.15,2013-02-05 22:35:00,
2013-02-05 14:40:00,58.8,52.3,29.99,SSE,158,0.0,-999.0,79,0.00,,,0.00,Wunderground v.1.15,2013-02-05 22:40:00,
2013-02-05 14:45:00,59.0,52.1,29.98,South,180,1.0,-999.0,78,0.00,,,0.00,Wunderground v.1.15,2013-02-05 22:45:00,
2013-02-05 14:50:00,59.0,52.1,29.98,South,180,1.0,-999.0,78,0.00,,,0.00,Wunderground v.1.15,2013-02-05 22:50:00,
2013-02-05 14:55:00,58.6,52.1,29.99,SW,225,2.0,-999.0,79,0.00,,,0.00,Wunderground v.1.15,2013-02-05 22:55:00,
2013-02-05 15:00:00,58.6,52.1,29.99,SW,225,2.0,-999.0,79,0.00,,,0.00,Wunderground v.1.15,2013-02-05 23:00:00,
2013-02-05 15:05:00,58.4,51.9,29.99,SW,225,1.0,-999.0,79,0.00,,,0.00,Wunderground v.1.15,2013-02-05 23:05:00,
2013-02-05 15:10:00,58.4,51.9,29.99,SW,225,1.0,-999.0,79,0.00,,,0.00,Wunderground v.1.15,2013-02-05 23:10:00,
2013-02-05 15:15:00,58.0,51.9,30.00,West,270,2.0,-999.0,80,0.00,,,0.00,Wunderground v.1.15,2013-02-05 23:15:00,
2013-02-05 15:20:00,58.0,51.9,30.00,West,270,2.0,-999.0,80,0.00,,,0.00,Wunderground v.1.15,2013-02-05 23:20:00,
2013-02-05 15:25:00,57.6,51.8,30.00,SW,225,4.0,-999.0,81,0.00,,,0.00,Wunderground v.1.15,2013-02-05 23:25:00,
2013-02-05 15:30:00,57.6,51.8,30.00,SW,225,4.0,-999.0,81,0.00,,,0.00,Wunderground v.1.15,2013-02-05 23:30:00,
2013-02-05 15:35:00,57.5,52.0,30.00,SW,225,3.0,-999.0,82,0.00,,,0.00,Wunderground v.1.15,2013-02-05 23:35:00,
2013-02-05 15:40:00,57.5,52.0,30.00,SW,225,3.0,-999.0,82,0.00,,,0.00,Wunderground v.1.15,2013-02-05 23:40:00,
2013-02-05 15:45:00,57.3,51.9,30.00,SW,225,4.0,-999.0,82,0.00,,,0.00,Wunderground v.1.15,2013-02-05 23:45:00,
2013-02-05 15:50:00,57.3,51.9,30.00,SW,225,4.0,-999.0,82,0.00,,,0.00,Wunderground v.1.15,2013-02-05 23:50:00,
2013-02-05 15:55:00,56.9,51.5,30.00,SW,225,3.0,-999.0,82,0.00,,,0.00,Wunderground v.1.15,2013-02-05 23:55:00,
2013-02-05 16:00:00,56.9,51.5,30.00,SW,225,3.0,-999.0,82,0.00,,,0.00,Wunderground v.1.15,2013-02-06 00:00:00,
2013-02-05 16:05:00,56.7,51.3,30.00,SW,225,3.0,-999.0,82,0.00,,,0.00,Wunderground v.1.15,2013-02-06 00:05:00,
2013-02-05 16:10:00,56.7,51.3,30.00,SW,225,3.0,-999.0,82,0.00,,,0.00,Wunderground v.1.15,2013-02-06 00:10:00,
2013-02-05 16:15:00,56.7,51.3,30.00,SW,225,3.0,-999.0,82,0.00,,,0.00,Wunderground v.1.15,2013-02-06 00:15:00,
2013-02-05 16:20:00,56.7,51.3,30.00,SW,225,3.0,-999.0,82,0.00,,,0.00,Wunderground v.1.15,2013-02-06 00:20:00,
2013-02-05 16:25:00,56.4,51.0,29.99,SW,225,2.0,-999.0,82,0.00,,,0.00,Wunderground v.1.15,2013-02-06 00:25:00,
2013-02-05 16:30:00,56.4,51.0,29.99,SW,225,2.0,-999.0,82,0.00,,,0.00,Wunderground v.1.15,2013-02-06 00:30:00,
2013-02-05 16:35:00,56.2,51.1,30.00,SSW,203,1.0,-999.0,83,0.00,,,0.00,Wunderground v.1.15,2013-02-06 00:35:00,
2013-02-05 16:40:00,56.2,51.1,30.00,SSW,203,1.0,-999.0,83,0.00,,,0.00,Wunderground v.1.15,2013-02-06 00:40:00,
2013-02-05 16:45:00,55.9,50.8,30.00,SSW,203,1.0,-999.0,83,0.00,,,0.00,Wunderground v.1.15,2013-02-06 00:45:00,
2013-02-05 16:50:00,55.9,50.8,30.00,SSW,203,1.0,-999.0,83,0.00,,,0.00,Wunderground v.1.15,2013-02-06 00:50:00,
2013-02-05 16:55:00,55.8,50.7,30.00,SSW,203,2.0,-999.0,83,0.00,,,0.00,Wunderground v.1.15,2013-02-06 00:55:00,
2013-02-05 17:00:00,55.8,50.7,30.00,SSW,203,2.0,-999.0,83,0.00,,,0.00,Wunderground v.1.15,2013-02-06 01:00:00,
2013-02-05 17:05:00,55.7,50.6,30.00,SW,225,2.0,-999.0,83,0.00,,,0.00,Wunderground v.1.15,2013-02-06 01:05:00,
2013-02-05 17:10:00,55.7,50.6,30.00,SW,225,2.0,-999.0,83,0.00,,,0.00,Wunderground v.1.15,2013-02-06 01:10:00,
2013-02-05 17:15:00,55.7,50.6,30.00,SW,225,1.0,-999.0,83,0.00,,,0.00,Wunderground v.1.15,2013-02-06 01:15:00,
2013-02-05 17:20:00,55.7,50.6,30.00,SW,225,1.0,-999.0,83,0.00,,,0.00,Wunderground v.1.15,2013-02-06 01:20:00,
2013-02-05 17:25:00,55.9,50.8,30.00,SSW,203,1.0,-999.0,83,0.00,,,0.00,Wunderground v.1.15,2013-02-06 01:25:00,
2013-02-05 17:30:00,55.9,50.8,30.00,SSW,203,1.0,-999.0,83,0.00,,,0.00,Wunderground v.1.15,2013-02-06 01:30:00,
2013-02-05 17:35:00,55.8,50.7,30.00,SW,225,1.0,-999.0,83,0.00,,,0.00,Wunderground v.1.15,2013-02-06 01:35:00,
2013-02-05 17:40:00,55.8,50.7,30.00,SW,225,1.0,-999.0,83,0.00,,,0.00,Wunderground v.1.15,2013-02-06 01:40:00,
2013-02-05 17:45:00,55.9,50.8,30.01,SW,225,1.0,-999.0,83,0.00,,,0.00,Wunderground v.1.15,2013-02-06 01:45:00,
2013-02-05 17:50:00,55.9,50.8,30.01,SW,225,1.0,-999.0,83,0.00,,,0.00,Wunderground v.1.15,2013-02-06 01:50:00,
2013-02-05 17:55:00,55.9,50.8,30.01,SW,225,1.0,-999.0,83,0.00,,,0.00,Wunderground v.1.15,2013-02-06 01:55:00,
2013-02-05 18:00:00,55.9,50.8,30.01,SW,225,1.0,-999.0,83,0.00,,,0.00,Wunderground v.1.15,2013-02-06 02:00:00,
2013-02-05 18:05:00,55.9,50.8,30.01,WSW,248,1.0,-999.0,83,0.00,,,0.00,Wunderground v.1.15,2013-02-06 02:05:00,
2013-02-05 18:10:00,55.9,50.8,30.01,WSW,248,1.0,-999.0,83,0.00,,,0.00,Wunderground v.1.15,2013-02-06 02:10:00,
2013-02-05 18:15:00,55.8,50.4,30.01,SW,225,2.0,-999.0,82,0.00,,,0.00,Wunderground v.1.15,2013-02-06 02:15:00,
2013-02-05 18:20:00,55.8,50.4,30.01,SW,225,2.0,-999.0,82,0.00,,,0.00,Wunderground v.1.15,2013-02-06 02:20:00,
2013-02-05 18:25:00,55.8,50.4,30.01,SSW,203,2.0,-999.0,82,0.00,,,0.00,Wunderground v.1.15,2013-02-06 02:25:00,
2013-02-05 18:30:00,55.8,50.4,30.01,SSW,203,2.0,-999.0,82,0.00,,,0.00,Wunderground v.1.15,2013-02-06 02:30:00,
2013-02-05 18:35:00,55.8,50.4,30.01,SW,225,2.0,-999.0,82,0.00,,,0.00,Wunderground v.1.15,2013-02-06 02:35:00,
2013-02-05 18:40:00,55.8,50.4,30.01,SW,225,2.0,-999.0,82,0.00,,,0.00,Wunderground v.1.15,2013-02-06 02:40:00,
2013-02-05 18:45:00,55.8,50.4,30.01,SW,225,1.0,-999.0,82,0.00,,,0.00,Wunderground v.1.15,2013-02-06 02:45:00,
2013-02-05 18:50:00,55.8,50.4,30.01,SW,225,1.0,-999.0,82,0.00,,,0.00,Wunderground v.1.15,2013-02-06 02:50:00,
2013-02-05 18:55:00,55.7,50.3,30.01,SSW,203,1.0,-999.0,82,0.00,,,0.00,Wunderground v.1.15,2013-02-06 02:55:00,
2013-02-05 19:00:00,55.7,50.3,30.01,SSW,203,1.0,-999.0,82,0.00,,,0.00,Wunderground v.1.15,2013-02-06 03:00:00,
2013-02-05 19:05:00,55.7,50.3,30.01,SSW,203,1.0,-999.0,82,0.00,,,0.00,Wunderground v.1.15,2013-02-06 03:05:00,
2013-02-05 19:10:00,55.7,50.3,30.01,SSW,203,1.0,-999.0,82,0.00,,,0.00,Wunderground v.1.15,2013-02-06 03:10:00,
2013-02-05 19:15:00,55.7,50.3,30.01,SSW,203,1.0,-999.0,82,0.00,,,0.00,Wunderground v.1.15,2013-02-06 03:15:00,
2013-02-05 19:20:00,55.7,50.3,30.01,SSW,203,1.0,-999.0,82,0.00,,,0.00,Wunderground v.1.15,2013-02-06 03:20:00,
2013-02-05 19:25:00,55.6,50.2,30.02,SSW,203,1.0,-999.0,82,0.00,,,0.00,Wunderground v.1.15,2013-02-06 03:25:00,
2013-02-05 19:30:00,55.6,50.2,30.02,SSW,203,1.0,-999.0,82,0.00,,,0.00,Wunderground v.1.15,2013-02-06 03:30:00,
2013-02-05 19:35:00,55.7,50.3,30.02,SW,225,1.0,-999.0,82,0.00,,,0.00,Wunderground v.1.15,2013-02-06 03:35:00,
2013-02-05 19:40:00,55.7,50.3,30.02,SW,225,1.0,-999.0,82,0.00,,,0.00,Wunderground v.1.15,2013-02-06 03:40:00,
2013-02-05 19:45:00,55.7,50.3,30.01,SW,225,1.0,-999.0,82,0.00,,,0.00,Wunderground v.1.15,2013-02-06 03:45:00,
2013-02-05 19:50:00,55.7,50.3,30.01,SW,225,1.0,-999.0,82,0.00,,,0.00,Wunderground v.1.15,2013-02-06 03:50:00,
2013-02-05 19:55:00,55.7,50.3,30.02,West,270,0.0,-999.0,82,0.00,,,0.00,Wunderground v.1.15,2013-02-06 03:55:00,
2013-02-05 20:00:00,55.7,50.3,30.02,West,270,0.0,-999.0,82,0.00,,,0.00,Wunderground v.1.15,2013-02-06 04:00:00,
2013-02-05 20:05:00,55.8,50.4,30.02,West,270,1.0,-999.0,82,0.00,,,0.00,Wunderground v.1.15,2013-02-06 04:05:00,
2013-02-05 20:10:00,55.8,50.4,30.02,West,270,1.0,-999.0,82,0.00,,,0.00,Wunderground v.1.15,2013-02-06 04:10:00,
2013-02-05 20:15:00,55.8,50.4,30.02,West,270,0.0,-999.0,82,0.00,,,0.00,Wunderground v.1.15,2013-02-06 04:15:00,
2013-02-05 20:20:00,55.8,50.4,30.02,West,270,0.0,-999.0,82,0.00,,,0.00,Wunderground v.1.15,2013-02-06 04:20:00,
2013-02-05 20:25:00,55.7,50.3,30.02,West,270,0.0,-999.0,82,0.00,,,0.00,Wunderground v.1.15,2013-02-06 04:25:00,
2013-02-05 20:30:00,55.7,50.3,30.02,West,270,0.0,-999.0,82,0.00,,,0.00,Wunderground v.1.15,2013-02-06 04:30:00,
2013-02-05 20:35:00,55.7,50.3,30.03,West,270,0.0,-999.0,82,0.00,,,0.00,Wunderground v.1.15,2013-02-06 04:35:00,
2013-02-05 20:40:00,55.7,50.3,30.03,West,270,0.0,-999.0,82,0.00,,,0.00,Wunderground v.1.15,2013-02-06 04:40:00,
2013-02-05 20:45:00,55.7,50.3,30.03,West,270,1.0,-999.0,82,0.00,,,0.00,Wunderground v.1.15,2013-02-06 04:45:00,
2013-02-05 20:50:00,55.7,50.3,30.03,West,270,1.0,-999.0,82,0.00,,,0.00,Wunderground v.1.15,2013-02-06 04:50:00,
2013-02-05 20:55:00,55.6,50.2,30.02,West,270,0.0,-999.0,82,0.00,,,0.00,Wunderground v.1.15,2013-02-06 04:55:00,
2013-02-05 21:00:00,55.6,50.2,30.02,West,270,0.0,-999.0,82,0.00,,,0.00,Wunderground v.1.15,2013-02-06 05:00:00,
2013-02-05 21:05:00,55.6,50.2,30.03,West,270,1.0,-999.0,82,0.00,,,0.00,Wunderground v.1.15,2013-02-06 05:05:00,
2013-02-05 21:10:00,55.6,50.2,30.03,West,270,1.0,-999.0,82,0.00,,,0.00,Wunderground v.1.15,2013-02-06 05:10:00,
2013-02-05 21:15:00,55.6,50.2,30.03,West,270,0.0,-999.0,82,0.00,,,0.00,Wunderground v.1.15,2013-02-06 05:15:00,
2013-02-05 21:20:00,55.6,50.2,30.03,West,270,0.0,-999.0,82,0.00,,,0.00,Wunderground v.1.15,2013-02-06 05:20:00,
2013-02-05 21:25:00,55.5,50.1,30.03,West,270,1.0,-999.0,82,0.00,,,0.00,Wunderground v.1.15,2013-02-06 05:25:00,
2013-02-05 21:30:00,55.5,50.1,30.03,West,270,1.0,-999.0,82,0.00,,,0.00,Wunderground v.1.15,2013-02-06 05:30:00,
2013-02-05 21:35:00,55.5,50.1,30.03,WSW,248,1.0,-999.0,82,0.00,,,0.00,Wunderground v.1.15,2013-02-06 05:35:00,
2013-02-05 21:40:00,55.5,50.1,30.03,WSW,248,1.0,-999.0,82,0.00,,,0.00,Wunderground v.1.15,2013-02-06 05:40:00,
2013-02-05 21:45:00,55.5,50.1,30.03,WSW,248,0.0,-999.0,82,0.00,,,0.00,Wunderground v.1.15,2013-02-06 05:45:00,
2013-02-05 21:50:00,55.5,50.1,30.03,WSW,248,0.0,-999.0,82,0.00,,,0.00,Wunderground v.1.15,2013-02-06 05:50:00,
2013-02-05 21:55:00,55.4,50.0,30.03,WSW,248,1.0,-999.0,82,0.00,,,0.00,Wunderground v.1.15,2013-02-06 05:55:00,
2013-02-05 22:00:00,55.4,50.0,30.03,WSW,248,1.0,-999.0,82,0.00,,,0.00,Wunderground v.1.15,2013-02-06 06:00:00,
2013-02-05 22:05:00,55.4,50.0,30.04,WSW,248,0.0,-999.0,82,0.00,,,0.00,Wunderground v.1.15,2013-02-06 06:05:00,
2013-02-05 22:10:00,55.4,50.0,30.04,WSW,248,0.0,-999.0,82,0.00,,,0.00,Wunderground v.1.15,2013-02-06 06:10:00,
2013-02-05 22:15:00,55.3,49.6,30.03,N/A,-737280,0.0,-999.0,81,0.00,,,0.00,Wunderground v.1.15,2013-02-06 06:15:00,
2013-02-05 22:20:00,55.3,49.6,30.03,N/A,-737280,0.0,-999.0,81,0.00,,,0.00,Wunderground v.1.15,2013-02-06 06:20:00,
2013-02-05 22:25:00,55.3,49.9,30.03,WSW,248,1.0,-999.0,82,0.00,,,0.00,Wunderground v.1.15,2013-02-06 06:25:00,
2013-02-05 22:30:00,55.3,49.9,30.03,WSW,248,1.0,-999.0,82,0.00,,,0.00,Wunderground v.1.15,2013-02-06 06:30:00,
2013-02-05 22:35:00,55.3,49.9,30.03,WSW,248,0.0,-999.0,82,0.00,,,0.00,Wunderground v.1.15,2013-02-06 06:35:00,
2013-02-05 22:40:00,55.3,49.9,30.03,WSW,248,0.0,-999.0,82,0.00,,,0.00,Wunderground v.1.15,2013-02-06 06:40:00,
2013-02-05 22:45:00,55.3,49.6,30.03,N/A,-737280,0.0,-999.0,81,0.00,,,0.00,Wunderground v.1.15,2013-02-06 06:45:00,
2013-02-05 22:50:00,55.3,49.6,30.03,N/A,-737280,0.0,-999.0,81,0.00,,,0.00,Wunderground v.1.15,2013-02-06 06:50:00,
2013-02-05 22:55:00,55.3,49.9,30.02,N/A,-737280,0.0,-999.0,82,0.00,,,0.00,Wunderground v.1.15,2013-02-06 06:55:00,
2013-02-05 23:00:00,55.3,49.9,30.02,N/A,-737280,0.0,-999.0,82,0.00,,,0.00,Wunderground v.1.15,2013-02-06 07:00:00,
2013-02-05 23:05:00,55.3,49.9,30.02,N/A,-737280,0.0,-999.0,82,0.00,,,0.00,Wunderground v.1.15,2013-02-06 07:05:00,
2013-02-05 23:10:00,55.3,49.9,30.02,N/A,-737280,0.0,-999.0,82,0.00,,,0.00,Wunderground v.1.15,2013-02-06 07:10:00,
2013-02-05 23:15:00,55.1,50.0,30.02,N/A,-737280,0.0,-999.0,83,0.00,,,0.00,Wunderground v.1.15,2013-02-06 07:15:00,
2013-02-05 23:20:00,55.1,50.0,30.02,N/A,-737280,0.0,-999.0,83,0.00,,,0.00,Wunderground v.1.15,2013-02-06 07:20:00,
2013-02-05 23:25:00,55.0,49.9,30.02,N/A,-737280,0.0,-999.0,83,0.00,,,0.00,Wunderground v.1.15,2013-02-06 07:25:00,
2013-02-05 23:30:00,55.0,49.9,30.02,N/A,-737280,0.0,-999.0,83,0.00,,,0.00,Wunderground v.1.15,2013-02-06 07:30:00,
2013-02-05 23:35:00,55.0,49.9,30.02,WSW,248,0.0,-999.0,83,0.00,,,0.00,Wunderground v.1.15,2013-02-06 07:35:00,
2013-02-05 23:40:00,55.0,49.9,30.02,WSW,248,0.0,-999.0,83,0.00,,,0.00,Wunderground v.1.15,2013-02-06 07:40:00,
2013-02-05 23:45:00,55.0,49.6,30.02,WSW,248,0.0,-999.0,82,0.00,,,0.00,Wunderground v.1.15,2013-02-06 07:45:00,
2013-02-05 23:50:00,55.0,49.6,30.02,WSW,248,0.0,-999.0,82,0.00,,,0.00,Wunderground v.1.15,2013-02-06 07:50:00,
2013-02-05 23:55:00,55.0,49.6,30.02,N/A,-737280,0.0,-999.0,82,0.00,,,0.00,Wunderground v.1.15,2013-02-06 07:55:00,